Saint Simons Island, GA

8:38 PM EDT on March 29, 2017 (GMT -0400)
McKinnon

Weather History for KSSI - August, 2014

Change the Weather History Date:

Saturday, August 2, 2014

  Actual Average Record
Temperature  
Mean Temperature 84 °F 83 °F  
Max Temperature 90 °F 90 °F 98 °F (1950)
Min Temperature 78 °F 76 °F 69 °F (1997)
Degree Days  
Heating Degree Days 0 0  
Month to date heating degree days 0 0  
Since 1 June heating degree days 0 0  
Since 1 July heating degree days 0 0  
Cooling Degree Days 19 18  
Month to date cooling degree days 39 36  
Year to date cooling degree days 1488 1490  
Since 1 June cooling degree days 1045 1048  
Growing Degree Days 34 (Base 50)    
Moisture  
Dew Point 74 °F    
Average Humidity 75    
Maximum Humidity 91    
Minimum Humidity 59    
Precipitation  
Precipitation 0.19 in 0.16 in 2.60 in (1990)
Month to date precipitation 0.19 0.32  
Year to date precipitation 26.14 24.16  
Snow  
Snow 0.00 in - 0.00 in ()
Month to date snowfall 0.0  
Since 1 June snowfall 0.0  
Since 1 July snowfall 0.0  
Snow Depth 0.00 in    
Sea Level Pressure  
Sea Level Pressure 29.99 in    
Wind  
Wind Speed 7 mph (ESE)    
Max Wind Speed 15 mph    
Max Gust Speed 20 mph    
Visibility 10 miles    
Events Rain , Thunderstorm    
T = Trace of Precipitation, MM = Missing Value Source: NWS Daily Summary

Daily Weather History Graph

Daily Weather History Graph

Search for Another Location

Airport or City:

Trip Planner

Search our weather history database for the weather conditions in past years. The results will help you decide how hot, cold, wet, or windy it might be!

Date:

Astronomy

Aug. 02, 2014 Rise Set
Actual Time 6:43 AM EDT 8:20 PM EDT
Civil Twilight 6:16 AM EDT 8:46 PM EDT
Nautical Twilight 5:45 AM EDT 9:17 PM EDT
Astronomical Twilight 5:12 AM EDT 9:50 PM EDT
Moon 12:35 PM EDT (8/2) No Moon Set
Length of Visible Light 14h 29m
Length of Day
13h 36m
Waxing Crescent, 36% of the Moon is Illuminated
Aug 2
Waxing Crescent
Aug 3
First Quarter
Aug 10
Full
Aug 17
Last Quarter
Aug 25
New

Hourly Weather History & Observations

Time (EDT) Temp. Heat Index Dew Point Humidity Pressure Visibility Wind Dir Wind Speed Gust Speed Precip Events Conditions
12:53 AM 82.9 °F 90.2 °F 75.0 °F 77% 30.00 in 10.0 mi Variable 5.8 mph - N/A   Mostly Cloudy
1:06 AM 82.9 °F 90.2 °F 75.0 °F 77% 29.99 in 10.0 mi South 6.9 mph - N/A   Scattered Clouds
1:53 AM 82.9 °F 89.4 °F 73.9 °F 74% 29.98 in 10.0 mi South 8.1 mph - N/A   Partly Cloudy
2:53 AM 82.0 °F 90.2 °F 77.0 °F 85% 29.96 in 10.0 mi SW 6.9 mph - N/A   Clear
3:53 AM 81.0 °F 87.3 °F 75.9 °F 85% 29.96 in 10.0 mi SW 4.6 mph - N/A   Clear
4:53 AM 81.0 °F 87.3 °F 75.9 °F 85% 29.96 in 10.0 mi SSW 6.9 mph - N/A   Overcast
5:24 AM 80.1 °F 85.1 °F 75.0 °F 85% 29.96 in 10.0 mi SSW 4.6 mph - N/A Thunderstorm Scattered Clouds
5:39 AM 79.0 °F - 75.0 °F 88% 29.96 in 10.0 mi SSW 3.5 mph - N/A   Clear
5:53 AM 80.1 °F 85.1 °F 75.0 °F 85% 29.98 in 10.0 mi Calm Calm - N/A   Clear
6:53 AM 78.1 °F - 75.0 °F 90% 29.99 in 10.0 mi SW 3.5 mph - N/A   Clear
7:53 AM 79.0 °F - 75.0 °F 88% 30.00 in 10.0 mi Calm Calm - N/A   Clear
8:53 AM 82.0 °F 89.4 °F 75.9 °F 82% 30.02 in 10.0 mi NNW 3.5 mph - N/A   Partly Cloudy
9:53 AM 84.0 °F 91.2 °F 73.9 °F 72% 30.01 in 10.0 mi North - - N/A   Clear
10:53 AM 86.0 °F 92.2 °F 72.0 °F 63% 30.02 in 10.0 mi Calm Calm - N/A   Clear
11:53 AM 87.1 °F 95.4 °F 73.9 °F 65% 30.03 in 10.0 mi SE 8.1 mph - N/A   Partly Cloudy
12:53 PM 89.1 °F 98.0 °F 73.9 °F 61% 30.01 in 10.0 mi East 9.2 mph - N/A   Clear
1:40 PM 87.1 °F 95.4 °F 73.9 °F 65% 30.00 in 10.0 mi East 11.5 mph - N/A Thunderstorm Clear
1:53 PM 86.0 °F 93.8 °F 73.9 °F 67% 30.01 in 10.0 mi East 10.4 mph - N/A Thunderstorm Thunderstorm
2:53 PM 80.1 °F 82.7 °F 68.0 °F 67% 30.00 in 10.0 mi West 6.9 mph - 0.00 in Thunderstorm Thunderstorm
3:09 PM 82.4 °F 86.3 °F 69.8 °F 66% 30.00 in 10.0 mi NNE 3.5 mph - N/A   Partly Cloudy
3:53 PM 84.9 °F 91.4 °F 73.0 °F 67% 30.00 in 10.0 mi East 8.1 mph - N/A   Clear
4:53 PM 86.0 °F 93.0 °F 73.0 °F 65% 29.98 in 10.0 mi ENE 10.4 mph - N/A   Clear
5:53 PM 84.0 °F 91.2 °F 73.9 °F 72% 29.98 in 10.0 mi East 10.4 mph - N/A   Partly Cloudy
6:53 PM 84.0 °F 91.2 °F 73.9 °F 72% 29.98 in 10.0 mi East 9.2 mph - N/A   Mostly Cloudy
7:00 PM 82.9 °F 89.4 °F 73.9 °F 74% 29.98 in 10.0 mi East 11.5 mph - N/A   Partly Cloudy
7:53 PM 82.9 °F 88.8 °F 73.0 °F 72% 30.00 in 10.0 mi East 9.2 mph - N/A   Scattered Clouds
8:53 PM 82.9 °F 88.8 °F 73.0 °F 72% 30.00 in 10.0 mi East 11.5 mph - N/A   Partly Cloudy
9:53 PM 82.9 °F 89.4 °F 73.9 °F 74% 30.00 in 10.0 mi East 10.4 mph - N/A   Mostly Cloudy
10:53 PM 82.9 °F 89.4 °F 73.9 °F 74% 30.02 in 10.0 mi East 8.1 mph - N/A   Mostly Cloudy
11:32 PM 82.9 °F 90.2 °F 75.0 °F 77% 30.00 in 10.0 mi ESE 10.4 mph - N/A Thunderstorm Mostly Cloudy
11:50 PM 80.6 °F 86.2 °F 75.2 °F 84% 30.00 in 2.5 mi East 12.7 mph - 0.16 in Rain , Thunderstorm Heavy Rain
11:53 PM 80.6 °F 86.2 °F 75.2 °F 84% 30.00 in 2.5 mi East 11.5 mph - N/A Rain , Thunderstorm Heavy Rain